Eau Claire, WI

4:17 PM CDT on June 27, 2017 (GMT -0500)
Chippewa Valley Regional

Weather History for KEAU - November, 2012

Change the Weather History Date:

Thursday, November 8, 2012

  Actual Average Record
Temperature  
Mean Temperature 45 °F 37 °F  
Max Temperature 55 °F 46 °F 76 °F (1999)
Min Temperature 35 °F 29 °F 3 °F (1991)
Degree Days  
Heating Degree Days 20 28  
Month to date heating degree days 214 208  
Since 1 July heating degree days 1067 992  
Cooling Degree Days 0 0  
Month to date cooling degree days 0 0  
Year to date cooling degree days 830 579  
Moisture  
Dew Point 33 °F    
Average Humidity 64    
Maximum Humidity 82    
Minimum Humidity 46    
Precipitation  
Precipitation 0.00 in 0.07 in 1.39 in (1916)
Month to date precipitation 0.23 0.51  
Year to date precipitation 21.94 28.65  
Snow  
Snow 0.00 in 0.10 in 5.00 in (1943)
Month to date snowfall 0.8 0.8  
Since 1 July snowfall 0.8 1.2  
Since 1 September snowfall 0.8 1.2  
Snow Depth 0.00 in    
Sea Level Pressure  
Sea Level Pressure 30.02 in    
Wind  
Wind Speed 6 mph (South)    
Max Wind Speed 18 mph    
Max Gust Speed 22 mph    
Visibility 10 miles    
Events      
T = Trace of Precipitation, MM = Missing Value Source: NWS Daily Summary

Daily Weather History Graph

Daily Weather History Graph

Search for Another Location

Airport or City:

Trip Planner

Search our weather history database for the weather conditions in past years. The results will help you decide how hot, cold, wet, or windy it might be!

Date:

Astronomy

Nov. 08, 2012 Rise Set
Actual Time 6:54 AM CST 4:44 PM CST
Civil Twilight 6:23 AM CST 5:15 PM CST
Nautical Twilight 5:48 AM CST 5:50 PM CST
Astronomical Twilight 5:13 AM CST 6:24 PM CST
Moon 12:35 AM CST (11/8) 1:38 PM CST (11/8)
Length of Visible Light 10h 52m
Length of Day
9h 50m
Waning Crescent, 32% of the Moon is Illuminated
Nov 8
Waning Crescent
Nov 13
New
Nov 20
First Quarter
Nov 28
Full
Dec 6
Last Quarter

Hourly Weather History & Observations

Time (CST) Temp. Windchill Dew Point Humidity Pressure Visibility Wind Dir Wind Speed Gust Speed Precip Events Conditions
1:56 AM 39.0 °F 35.7 °F 30.0 °F 70% 30.11 in 10.0 mi South 4.6 mph - N/A   Overcast
2:18 AM 39.2 °F 35.0 °F 30.2 °F 70% 30.07 in 10.0 mi South 5.8 mph - N/A   Overcast
2:56 AM 39.0 °F 34.8 °F 30.0 °F 70% 30.09 in 10.0 mi South 5.8 mph - N/A   Overcast
3:42 AM 37.4 °F 32.1 °F 30.2 °F 75% 30.05 in 10.0 mi South 6.9 mph - N/A   Scattered Clouds
3:56 AM 37.0 °F 32.4 °F 30.0 °F 76% 30.08 in 10.0 mi South 5.8 mph - N/A   Partly Cloudy
4:56 AM 35.1 °F 30.1 °F 30.0 °F 82% 30.07 in 10.0 mi SSE 5.8 mph - N/A   Clear
5:56 AM 36.0 °F 30.3 °F 30.0 °F 79% 30.06 in 10.0 mi SSE 6.9 mph - N/A   Partly Cloudy
6:56 AM 35.1 °F 28.6 °F 30.0 °F 82% 30.05 in 10.0 mi SSE 8.1 mph - N/A   Clear
7:56 AM 37.0 °F 31.6 °F 30.9 °F 79% 30.06 in 10.0 mi South 6.9 mph - N/A   Clear
8:56 AM 39.9 °F 33.4 °F 32.0 °F 73% 30.05 in 10.0 mi South 10.4 mph - N/A   Clear
9:56 AM 44.1 °F 39.0 °F 34.0 °F 68% 30.04 in 10.0 mi SSW 9.2 mph - N/A   Clear
10:56 AM 48.0 °F - 34.0 °F 58% 30.02 in 10.0 mi South 17.3 mph 21.9 mph N/A   Clear
11:56 AM 48.0 °F - 34.0 °F 58% 29.99 in 10.0 mi South 10.4 mph - N/A   Clear
12:56 PM 53.1 °F - 35.1 °F 50% 29.96 in 10.0 mi South 10.4 mph 20.7 mph N/A   Clear
1:56 PM 52.0 °F - 34.0 °F 50% 29.95 in 10.0 mi South 9.2 mph - N/A   Clear
2:56 PM 54.0 °F - 35.1 °F 49% 29.94 in 10.0 mi SSW 6.9 mph - N/A   Clear
3:56 PM 54.0 °F - 34.0 °F 47% 29.95 in 10.0 mi SSW 10.4 mph - N/A   Clear
4:56 PM 48.0 °F - 34.0 °F 58% 29.98 in 10.0 mi SSW 4.6 mph - N/A   Clear
5:56 PM 46.0 °F - 34.0 °F 63% 29.99 in 10.0 mi Calm Calm - N/A   Mostly Cloudy
6:56 PM 46.0 °F - 35.1 °F 66% 30.00 in 10.0 mi Calm Calm - N/A   Overcast
7:56 PM 46.9 °F - 36.0 °F 66% 30.00 in 10.0 mi South 3.5 mph - N/A   Overcast
8:56 PM 45.0 °F - 36.0 °F 71% 30.01 in 10.0 mi Calm Calm - N/A   Overcast
9:56 PM 44.1 °F - 36.0 °F 73% 30.02 in 10.0 mi Calm Calm - N/A   Overcast
10:56 PM 44.1 °F - 37.9 °F 79% 30.02 in 10.0 mi Calm Calm - N/A   Overcast
11:56 PM 45.0 °F - 37.0 °F 74% 30.03 in 10.0 mi Calm Calm - N/A   Overcast